AirNav   Everest Fuels
 
 1610 users online  

F95 Calhoun County Airport
Blountstown, Florida, USA

GOING TO BLOUNTSTOWN?


FAA INFORMATION EFFECTIVE 25 MARCH 2021

Location

FAA Identifier: F95
Lat/Long: 30-29-13.3085N 085-06-49.6260W
30-29.221808N 085-06.827100W
30.4870301,-85.1137850
(estimated)
Elevation: 122 ft. / 37 m (estimated)
Variation: 02W (1995)
From city: 5 miles NW of BLOUNTSTOWN, FL
Time zone: UTC -5 (UTC -6 during Standard Time)
Zip code: 32421

Airport Operations

Airport use: Open to the public
Activation date: 12/1996
Control tower: no
ARTCC: JACKSONVILLE CENTER
FSS: GAINESVILLE FLIGHT SERVICE STATION
NOTAMs facility: GNV (NOTAM-D service available)
Attendance: MON-FRI 0700-1500
Wind indicator: lighted
Segmented circle: yes
Lights: ACTVT MIRL RY 18/36 AND PAPI RYS 18 & 36 - CTAF.
Beacon: white (unlighted land airport)
Operates sunset to sunrise.

Airport Communications

CTAF: 122.9
WX AWOS-AV: 119.350 (850-674-1347)

Nearby radio navigation aids

VOR radial/distance  VOR name  Freq  Var
MAIr178/18.0MARIANNA VORTAC114.0000E
SZWr262/38.5SEMINOLE VORTAC117.5002E

 
NDB name  Hdg/Dist  Freq  Var  ID
SOYYA168/23.832902WSMY ... -- -.--
LYNNE078/35.927804WPFN .--. ..-. -.

Airport Services

Fuel available: 100LL JET-A
Parking: hangars and tiedowns
Airframe service: MAJOR
Powerplant service: MAJOR
Bottled oxygen: NONE
Bulk oxygen: NONE

Runway Information

Runway 18/36

Dimensions: 3730 x 75 ft. / 1137 x 23 m
Surface: asphalt, in good condition
Weight bearing capacity: 
PCN 13 /F/A/Y/T
Runway edge lights: medium intensity
RUNWAY 18  RUNWAY 36
Latitude: 30-29.529467N30-28.914150N
Longitude: 085-06.827600W085-06.826600W
Elevation: 120.9 ft.118.1 ft.
Traffic pattern: leftleft
Runway heading: 182 magnetic, 180 true002 magnetic, 360 true
Markings: nonprecision, in good conditionnonprecision, in good condition
Visual slope indicator: 2-light PAPI on left (3.00 degrees glide path)2-light PAPI on left (3.00 degrees glide path)
Obstructions: 68 ft. trees, 1547 ft. from runway, 40 ft. left of centerline, 20:1 slope to clear
APPROACH SLOPE 20:1 TO THE DSPLCD THLD DUE TO 88 FT TREE 185 FT L OF CNTRLN AND 1600 FT FRM RY END.
15 ft. road, 425 ft. from runway, 125 ft. right of centerline, 15:1 slope to clear

Airport Ownership and Management from official FAA records

Ownership: Publicly-owned
Owner: CALHOUN COUNTY
20589 CENTRAL AVENUE EAST
BLOUNTSTOWN, FL 32424
Phone 850-674-4545
Manager: SCOTT SNYDER
16701 AGRIPARK ROAD
ALTHA, FL 32421
Phone 850-559-2410
AIRPORT PHYSICAL ADDRESS: 16701 NORTHWEST AGRIPARK ROAD, ALTHA, FL 3241 850-674-2499 FAX: 850-674-1578.

Airport Operational Statistics

Aircraft based on the field: 9
Single engine airplanes: 9
    
Aircraft operations: avg 38/week *
50% transient general aviation
50% local general aviation
* for 12-month period ending 05 March 2018

Additional Remarks

FOR CD CTC TYNDALL APCH AT 850-283-2900 OR 850-283-3353, WHEN APCH CLSD CTC JACKSONVILLE ARTCC AT 904-845-1592.

Instrument Procedures

There are no published instrument procedures at F95.

Some nearby airports with instrument procedures:

KMAI - Marianna Municipal Airport (21 nm N)
2J9 - Quincy Municipal Airport (30 nm E)
1J0 - Tri-County Airport (33 nm NW)
17J - Donalsonville Municipal Airport (33 nm N)
KPAM - Tyndall Air Force Base (35 nm SW)
 
Loc | Ops | Rwys | IFR | FBO | Links
Com | Nav | Svcs | Stats | Notes
Area around F95 (Calhoun County Airport)
 
Road maps at: MapQuest Bing Google
 
Aerial photo
WARNING: Photo may not be current or correct
Aerial photo of F95 (Calhoun County Airport)
Photo by Brian Christopher
Photo taken 08-Aug-2010

Do you have a better or more recent aerial photo of Calhoun County Airport that you would like to share? If so, please send us your photo.

 
Sectional chart

 
Airport distance calculator
Flying to Calhoun County Airport? Find the distance to fly.

From to F95

Sunrise and sunset
Times for 19-Apr-2021
 Local
(UTC-5)
 Zulu
(UTC)
Morning civil twilight05:4510:45
Sunrise06:1011:10
Sunset19:1000:10
Evening civil twilight19:3400:34

Current date and time
Zulu (UTC)  19-Apr-2021 14:57:32
Local (UTC-5)  19-Apr-2021 09:57:32
 
METAR
KMAI 
21nm N 
191453Z AUTO 33008KT 10SM CLR 19/08 A2999 RMK AO2 SLP153 T01890078 50006
K2J9 
30nm E 
191455Z AUTO 03008G13KT 350V060 10SM CLR 19/08 A3001 RMK AO2
K17J 
33nm N 
191435Z AUTO 34008KT 10SM CLR 18/07 A3000 RMK AO2 T01820070
KTDR 
34nm SW 
191356Z AUTO 02014KT 10SM CLR 18/10 A2998 RMK AO2 SLP156 T01780097 $
KPAM 
34nm SW 
191356Z AUTO 01009KT 10SM CLR 18/09 A2997 RMK AO2 SLP152 T01760092 $
KECP 
36nm W 
191353Z 34011G18KT 10SM CLR 17/08 A2998 RMK AO2 SLP164 T01720083
KBGE 
38nm NE 
191435Z AUTO 34011G15KT 10SM CLR 19/09 A3000 RMK AO2 T01890087
KTLH 
40nm E 
191453Z 35009KT 10SM FEW100 20/09 A2998 RMK AO2 SLP152 T02000089 51011
TAF
KPAM 
34nm SW 
191100Z 1911/2017 01009KT 9999 SCT120 QNH2989INS BECMG 1914/1915 02010G15KT 9999 FEW100 QNH3000INS BECMG 2002/2003 02006KT 9999 BKN080 QNH2996INS TX21/1920Z TN15/1911Z
KECP 
36nm W 
191120Z 1912/2012 33004KT P6SM SCT250 FM191800 33007G15KT P6SM SKC
KTLH 
40nm E 
191120Z 1912/2012 VRB03KT P6SM BKN070 FM191700 33005G15KT P6SM FEW250
NOTAMs
Click for the latest NOTAMs
NOTAMs are issued by the DoD/FAA and will open in a separate window not controlled by AirNav.

 

 
 

FBO, Fuel Providers, and Aircraft Ground Support

  
 Business Name 
 
 Contact 
 
 Services / Description 
 
Fuel Prices
 
Comments
  
Calhoun County Airport 850-674-2499
no information available

If you are affiliated with Calhoun County Airport and would like to show here your services, contact info, web link, logo, and more, click here
100LL Jet A
SS $3.75 $3.40 
 Updated 15-Apr-2021
 
   1 read write
SS=Self service
Update Fuel Prices
 

Would you like to see your business listed on this page?

 If your business provides an interesting product or service to pilots, flight crews, aircraft, or users of the Calhoun County Airport, you should consider listing it here.  To start the listing process, click on the button below
 
Add a business
 

Other Pages about Calhoun County Airport

Update a link
 
Copyright © AirNav, LLC. All rights reserved. Privacy Policy  Contact